Time,TemperatureF,DewpointF,PressureIn,WindDirection,WindDirectionDegrees,WindSpeedMPH,WindSpeedGustMPH,Humidity,HourlyPrecipIn,Conditions,Clouds,dailyrainin,SoftwareType,DateUTC
2013-04-04 00:00:00,52.2,26.1,30.21,North,0,5.0,6.0,36,0.00,,,0.00,meteohub,2013-04-04 06:00:00,
2013-04-04 00:05:00,52.2,26.1,30.21,NNW,338,4.0,6.0,36,0.00,,,0.00,meteohub,2013-04-04 06:05:00,
2013-04-04 00:11:00,52.2,26.1,30.21,North,0,4.0,6.0,36,0.00,,,0.00,meteohub,2013-04-04 06:11:00,
2013-04-04 00:16:00,52.0,25.9,30.21,North,0,4.0,8.0,36,0.00,,,0.00,meteohub,2013-04-04 06:16:00,
2013-04-04 00:21:00,52.0,26.6,30.21,NNW,338,5.0,8.0,37,0.00,,,0.00,meteohub,2013-04-04 06:21:00,
2013-04-04 00:26:00,52.0,26.6,30.21,NE,45,4.0,8.0,37,0.00,,,0.00,meteohub,2013-04-04 06:26:00,
2013-04-04 00:31:00,51.8,26.4,30.21,NW,315,6.0,9.0,37,0.00,,,0.00,meteohub,2013-04-04 06:31:00,
2013-04-04 00:36:00,51.8,26.4,30.21,NNW,338,6.0,9.0,37,0.00,,,0.00,meteohub,2013-04-04 06:36:00,
2013-04-04 00:41:00,51.6,26.2,30.21,NNW,338,6.0,9.0,37,0.00,,,0.00,meteohub,2013-04-04 06:41:00,
2013-04-04 00:46:00,51.6,26.2,30.21,NNE,22,3.0,9.0,37,0.00,,,0.00,meteohub,2013-04-04 06:46:00,
2013-04-04 00:52:00,51.6,26.2,30.21,NNW,338,5.0,9.0,37,0.00,,,0.00,meteohub,2013-04-04 06:52:00,
2013-04-04 00:57:00,51.6,26.2,30.21,NE,45,6.0,8.0,37,0.00,,,0.00,meteohub,2013-04-04 06:57:00,
2013-04-04 01:02:00,51.4,26.1,30.21,NNE,22,5.0,7.0,37,0.00,,,0.00,meteohub,2013-04-04 07:02:00,
2013-04-04 01:07:00,51.1,25.7,30.21,NNW,338,6.0,8.0,37,0.00,,,0.00,meteohub,2013-04-04 07:07:00,
2013-04-04 01:12:00,50.9,25.5,30.21,NNW,338,6.0,8.0,37,0.00,,,0.00,meteohub,2013-04-04 07:12:00,
2013-04-04 01:18:00,50.7,25.5,30.21,NNE,22,3.0,8.0,37,0.00,,,0.00,meteohub,2013-04-04 07:18:00,
2013-04-04 01:23:00,50.4,25.7,30.21,NNW,338,9.0,11.0,38,0.00,,,0.00,meteohub,2013-04-04 07:23:00,
2013-04-04 01:28:00,50.4,25.7,30.21,NNE,22,6.0,15.0,38,0.00,,,0.00,meteohub,2013-04-04 07:28:00,
2013-04-04 01:34:00,50.0,25.5,30.24,NNW,338,5.0,15.0,38,0.00,,,0.00,meteohub,2013-04-04 07:34:00,
2013-04-04 01:39:00,49.8,25.9,30.24,NNW,338,4.0,15.0,39,0.00,,,0.00,meteohub,2013-04-04 07:39:00,
2013-04-04 01:44:00,49.5,25.5,30.24,NNW,338,5.0,13.0,39,0.00,,,0.00,meteohub,2013-04-04 07:44:00,
2013-04-04 01:49:00,49.3,25.3,30.24,NNW,338,3.0,13.0,39,0.00,,,0.00,meteohub,2013-04-04 07:49:00,
2013-04-04 01:54:00,48.9,25.2,30.24,NNE,22,3.0,6.0,39,0.00,,,0.00,meteohub,2013-04-04 07:54:00,
2013-04-04 01:59:00,48.7,25.0,30.24,North,0,4.0,6.0,39,0.00,,,0.00,meteohub,2013-04-04 07:59:00,
2013-04-04 02:04:00,48.6,25.3,30.24,NNW,338,2.0,4.0,40,0.00,,,0.00,meteohub,2013-04-04 08:04:00,
2013-04-04 02:09:00,48.4,25.2,30.24,NW,315,3.0,6.0,40,0.00,,,0.00,meteohub,2013-04-04 08:09:00,
2013-04-04 02:14:00,48.2,25.0,30.24,North,0,2.0,6.0,40,0.00,,,0.00,meteohub,2013-04-04 08:14:00,
2013-04-04 02:19:00,47.8,25.3,30.24,NNW,338,6.0,6.0,41,0.00,,,0.00,meteohub,2013-04-04 08:19:00,
2013-04-04 02:25:00,47.8,25.3,30.24,WNW,292,3.0,6.0,41,0.00,,,0.00,meteohub,2013-04-04 08:25:00,
2013-04-04 02:30:00,47.5,25.5,30.24,NNE,22,4.0,6.0,42,0.00,,,0.00,meteohub,2013-04-04 08:30:00,
2013-04-04 02:35:00,47.5,25.5,30.24,WNW,292,3.0,6.0,42,0.00,,,0.00,meteohub,2013-04-04 08:35:00,
2013-04-04 02:40:00,47.1,25.3,30.24,WNW,292,3.0,6.0,42,0.00,,,0.00,meteohub,2013-04-04 08:40:00,
2013-04-04 02:46:00,46.8,25.0,30.24,NW,315,4.0,7.0,42,0.00,,,0.00,meteohub,2013-04-04 08:46:00,
2013-04-04 02:51:00,46.6,24.8,30.24,WNW,292,3.0,7.0,42,0.00,,,0.00,meteohub,2013-04-04 08:51:00,
2013-04-04 02:56:00,46.4,25.2,30.24,WNW,292,5.0,5.0,43,0.00,,,0.00,meteohub,2013-04-04 08:56:00,
2013-04-04 03:02:00,46.2,25.0,30.24,WNW,292,2.0,5.0,43,0.00,,,0.00,meteohub,2013-04-04 09:02:00,
2013-04-04 03:07:00,46.0,24.8,30.24,WNW,292,0.0,5.0,43,0.00,,,0.00,meteohub,2013-04-04 09:07:00,
2013-04-04 03:12:00,46.0,24.8,30.24,WNW,292,0.0,5.0,43,0.00,,,0.00,meteohub,2013-04-04 09:12:00,
2013-04-04 03:18:00,45.7,25.0,30.21,NNE,22,2.0,3.0,44,0.00,,,0.00,meteohub,2013-04-04 09:18:00,
2013-04-04 03:23:00,45.5,25.0,30.21,NNW,338,1.0,2.0,44,0.00,,,0.00,meteohub,2013-04-04 09:23:00,
2013-04-04 03:28:00,45.3,24.8,30.21,NNW,338,1.0,2.0,44,0.00,,,0.00,meteohub,2013-04-04 09:28:00,
2013-04-04 03:33:00,45.1,25.2,30.21,NNW,338,0.0,2.0,45,0.00,,,0.00,meteohub,2013-04-04 09:33:00,
2013-04-04 03:38:00,44.6,24.6,30.21,SW,225,2.0,2.0,45,0.00,,,0.00,meteohub,2013-04-04 09:38:00,
2013-04-04 03:43:00,44.2,24.3,30.21,SSW,202,2.0,2.0,45,0.00,,,0.00,meteohub,2013-04-04 09:43:00,
2013-04-04 03:49:00,43.9,24.4,30.21,SSW,202,2.0,3.0,46,0.00,,,0.00,meteohub,2013-04-04 09:49:00,
2013-04-04 03:54:00,43.7,24.3,30.21,SSW,202,0.0,3.0,46,0.00,,,0.00,meteohub,2013-04-04 09:54:00,
2013-04-04 03:59:00,43.5,24.6,30.21,WSW,248,2.0,3.0,47,0.00,,,0.00,meteohub,2013-04-04 09:59:00,
2013-04-04 04:05:00,43.3,24.4,30.24,WNW,292,1.0,2.0,47,0.00,,,0.00,meteohub,2013-04-04 10:05:00,
2013-04-04 04:10:00,43.2,24.3,30.24,WNW,292,0.0,2.0,47,0.00,,,0.00,meteohub,2013-04-04 10:10:00,
2013-04-04 04:15:00,43.0,24.6,30.24,WNW,292,0.0,2.0,48,0.00,,,0.00,meteohub,2013-04-04 10:15:00,
2013-04-04 04:20:00,42.8,24.4,30.21,WNW,292,0.0,1.0,48,0.00,,,0.00,meteohub,2013-04-04 10:20:00,
2013-04-04 04:26:00,42.6,24.3,30.21,WNW,292,0.0,1.0,48,0.00,,,0.00,meteohub,2013-04-04 10:26:00,
2013-04-04 04:32:00,42.1,24.3,30.24,NNW,338,2.0,4.0,49,0.00,,,0.00,meteohub,2013-04-04 10:32:00,
2013-04-04 04:37:00,41.9,24.3,30.24,NNW,338,0.0,4.0,49,0.00,,,0.00,meteohub,2013-04-04 10:37:00,
2013-04-04 04:42:00,41.5,23.9,30.24,South,180,3.0,4.0,49,0.00,,,0.00,meteohub,2013-04-04 10:42:00,
2013-04-04 04:47:00,41.2,23.5,30.21,SSE,158,0.0,3.0,49,0.00,,,0.00,meteohub,2013-04-04 10:47:00,
2013-04-04 04:52:00,41.0,23.4,30.21,WSW,248,3.0,3.0,49,0.00,,,0.00,meteohub,2013-04-04 10:52:00,
2013-04-04 04:58:00,40.8,23.7,30.21,SW,225,0.0,3.0,50,0.00,,,0.00,meteohub,2013-04-04 10:58:00,
2013-04-04 05:03:00,40.5,23.4,30.21,SW,225,0.0,3.0,50,0.00,,,0.00,meteohub,2013-04-04 11:03:00,
2013-04-04 05:09:00,39.9,22.8,30.21,SSE,158,1.0,3.0,50,0.00,,,0.00,meteohub,2013-04-04 11:09:00,
2013-04-04 05:14:00,39.4,22.3,30.21,SSW,202,0.0,2.0,50,0.00,,,0.00,meteohub,2013-04-04 11:14:00,
2013-04-04 05:19:00,39.4,22.8,30.21,SW,225,0.0,2.0,51,0.00,,,0.00,meteohub,2013-04-04 11:19:00,
2013-04-04 05:24:00,39.2,22.6,30.21,SSW,202,0.0,2.0,51,0.00,,,0.00,meteohub,2013-04-04 11:24:00,
2013-04-04 05:29:00,38.8,22.8,30.21,NNE,22,4.0,4.0,52,0.00,,,0.00,meteohub,2013-04-04 11:29:00,
2013-04-04 05:35:00,38.7,23.0,30.24,NNE,22,2.0,3.0,53,0.00,,,0.00,meteohub,2013-04-04 11:35:00,
2013-04-04 05:40:00,38.5,22.8,30.24,NNW,338,2.0,4.0,53,0.00,,,0.00,meteohub,2013-04-04 11:40:00,
2013-04-04 05:45:00,38.5,22.8,30.24,NNW,338,0.0,4.0,53,0.00,,,0.00,meteohub,2013-04-04 11:45:00,
2013-04-04 05:52:00,38.5,22.8,30.21,NNW,338,3.0,3.0,53,0.00,,,0.00,meteohub,2013-04-04 11:52:00,
2013-04-04 05:57:00,38.1,22.5,30.21,WNW,292,2.0,3.0,53,0.00,,,0.00,meteohub,2013-04-04 11:57:00,
2013-04-04 06:02:00,38.1,23.0,30.21,NNW,338,3.0,3.0,54,0.00,,,0.00,meteohub,2013-04-04 12:02:00,
2013-04-04 06:07:00,38.1,23.0,30.24,NNW,338,3.0,4.0,54,0.00,,,0.00,meteohub,2013-04-04 12:07:00,
2013-04-04 06:12:00,37.9,22.8,30.24,WNW,292,2.0,4.0,54,0.00,,,0.00,meteohub,2013-04-04 12:12:00,
2013-04-04 06:17:00,37.6,23.0,30.24,NNW,338,1.0,4.0,55,0.00,,,0.00,meteohub,2013-04-04 12:17:00,
2013-04-04 06:23:00,37.6,23.0,30.24,WNW,292,2.0,4.0,55,0.00,,,0.00,meteohub,2013-04-04 12:23:00,
2013-04-04 06:29:00,37.6,23.0,30.24,NNW,338,0.0,4.0,55,0.00,,,0.00,meteohub,2013-04-04 12:29:00,
2013-04-04 06:35:00,37.6,23.0,30.24,WNW,292,1.0,2.0,55,0.00,,,0.00,meteohub,2013-04-04 12:35:00,
2013-04-04 06:40:00,37.4,22.8,30.24,NNW,338,1.0,2.0,55,0.00,,,0.00,meteohub,2013-04-04 12:40:00,
2013-04-04 06:46:00,37.4,22.8,30.24,NNW,338,0.0,2.0,55,0.00,,,0.00,meteohub,2013-04-04 12:46:00,
2013-04-04 06:51:00,37.2,23.0,30.24,NNE,22,2.0,3.0,56,0.00,,,0.00,meteohub,2013-04-04 12:51:00,
2013-04-04 06:56:00,37.2,23.0,30.24,NNW,338,0.0,3.0,56,0.00,,,0.00,meteohub,2013-04-04 12:56:00,
2013-04-04 07:01:00,37.2,23.0,30.24,WSW,248,0.0,3.0,56,0.00,,,0.00,meteohub,2013-04-04 13:01:00,
2013-04-04 07:06:00,37.2,23.4,30.24,NNW,338,2.0,3.0,57,0.00,,,0.00,meteohub,2013-04-04 13:06:00,
2013-04-04 07:11:00,37.2,23.0,30.24,NW,315,1.0,3.0,56,0.00,,,0.00,meteohub,2013-04-04 13:11:00,
2013-04-04 07:16:00,37.2,23.4,30.24,WNW,292,0.0,3.0,57,0.00,,,0.00,meteohub,2013-04-04 13:16:00,
2013-04-04 07:21:00,37.4,23.2,30.27,WSW,248,0.0,3.0,56,0.00,,,0.00,meteohub,2013-04-04 13:21:00,
2013-04-04 07:27:00,37.4,23.2,30.27,WSW,248,0.0,2.0,56,0.00,,,0.00,meteohub,2013-04-04 13:27:00,
2013-04-04 07:32:00,37.4,23.5,30.24,WSW,248,1.0,0.0,57,0.00,,,0.00,meteohub,2013-04-04 13:32:00,
2013-04-04 07:37:00,37.8,24.3,30.24,SSW,202,2.0,2.0,58,0.00,,,0.00,meteohub,2013-04-04 13:37:00,
2013-04-04 07:42:00,37.9,24.4,30.24,SSE,158,1.0,2.0,58,0.00,,,0.00,meteohub,2013-04-04 13:42:00,
2013-04-04 07:47:00,38.1,25.2,30.21,ESE,112,0.0,2.0,59,0.00,,,0.00,meteohub,2013-04-04 13:47:00,
2013-04-04 07:52:00,38.1,25.2,30.21,ENE,68,0.0,2.0,59,0.00,,,0.00,meteohub,2013-04-04 13:52:00,
2013-04-04 07:57:00,38.5,25.5,30.21,NE,45,0.0,2.0,59,0.00,,,0.00,meteohub,2013-04-04 13:57:00,
2013-04-04 08:02:00,38.8,25.7,30.24,WNW,292,1.0,2.0,59,0.00,,,0.00,meteohub,2013-04-04 14:02:00,
2013-04-04 08:08:00,39.2,26.1,30.24,NE,45,0.0,2.0,59,0.00,,,0.00,meteohub,2013-04-04 14:08:00,
2013-04-04 08:14:00,39.6,26.4,30.24,NNE,22,2.0,2.0,59,0.00,,,0.00,meteohub,2013-04-04 14:14:00,
2013-04-04 08:19:00,39.9,26.8,30.24,NNE,22,2.0,3.0,59,0.00,,,0.00,meteohub,2013-04-04 14:19:00,
2013-04-04 08:24:00,40.3,27.1,30.24,ENE,68,1.0,3.0,59,0.00,,,0.00,meteohub,2013-04-04 14:24:00,
2013-04-04 08:30:00,40.8,27.7,30.24,NNE,22,2.0,3.0,59,0.00,,,0.00,meteohub,2013-04-04 14:30:00,
2013-04-04 08:35:00,41.2,27.5,30.24,NE,45,2.0,4.0,58,0.00,,,0.00,meteohub,2013-04-04 14:35:00,
2013-04-04 08:40:00,41.7,28.0,30.24,ENE,68,3.0,4.0,58,0.00,,,0.00,meteohub,2013-04-04 14:40:00,
2013-04-04 08:45:00,42.3,28.6,30.24,ESE,112,3.0,5.0,58,0.00,,,0.00,meteohub,2013-04-04 14:45:00,
2013-04-04 08:50:00,43.0,29.3,30.21,ENE,68,1.0,5.0,58,0.00,,,0.00,meteohub,2013-04-04 14:50:00,
2013-04-04 08:56:00,43.5,29.3,30.21,NE,45,0.0,5.0,57,0.00,,,0.00,meteohub,2013-04-04 14:56:00,
2013-04-04 09:02:00,44.1,29.8,30.24,ESE,112,4.0,4.0,57,0.00,,,0.00,meteohub,2013-04-04 15:02:00,
2013-04-04 09:08:00,45.0,30.7,30.24,South,180,1.0,4.0,57,0.00,,,0.00,meteohub,2013-04-04 15:08:00,
2013-04-04 09:13:00,45.5,31.1,30.24,East,90,3.0,4.0,57,0.00,,,0.00,meteohub,2013-04-04 15:13:00,
2013-04-04 09:18:00,46.0,31.3,30.24,SSE,158,2.0,4.0,56,0.00,,,0.00,meteohub,2013-04-04 15:18:00,
2013-04-04 09:24:00,46.6,31.8,30.24,NE,45,2.0,3.0,56,0.00,,,0.00,meteohub,2013-04-04 15:24:00,
2013-04-04 09:29:00,47.3,32.0,30.24,ESE,112,2.0,3.0,55,0.00,,,0.00,meteohub,2013-04-04 15:29:00,
2013-04-04 09:34:00,48.4,33.1,30.24,SE,135,7.0,7.0,55,0.00,,,0.00,meteohub,2013-04-04 15:34:00,
2013-04-04 09:40:00,49.6,33.3,30.24,SSE,158,8.0,9.0,53,0.00,,,0.00,meteohub,2013-04-04 15:40:00,
2013-04-04 09:45:00,50.4,33.4,30.24,SSE,158,8.0,11.0,52,0.00,,,0.00,meteohub,2013-04-04 15:45:00,
2013-04-04 09:50:00,51.4,34.0,30.24,SSE,158,4.0,11.0,51,0.00,,,0.00,meteohub,2013-04-04 15:50:00,
2013-04-04 09:55:00,52.2,34.2,30.24,SSE,158,4.0,11.0,50,0.00,,,0.00,meteohub,2013-04-04 15:55:00,
2013-04-04 10:01:00,52.9,34.3,30.24,South,180,6.0,11.0,49,0.00,,,0.00,meteohub,2013-04-04 16:01:00,
2013-04-04 10:06:00,53.4,34.3,30.24,SSE,158,8.0,11.0,48,0.00,,,0.00,meteohub,2013-04-04 16:06:00,
2013-04-04 10:11:00,54.1,34.3,30.24,SSE,158,9.0,11.0,47,0.00,,,0.00,meteohub,2013-04-04 16:11:00,
2013-04-04 10:16:00,54.5,34.2,30.24,SSE,158,5.0,11.0,46,0.00,,,0.00,meteohub,2013-04-04 16:16:00,
2013-04-04 10:22:00,55.0,34.7,30.24,SSE,158,7.0,13.0,46,0.00,,,0.00,meteohub,2013-04-04 16:22:00,
2013-04-04 10:27:00,55.8,34.7,30.24,SSE,158,7.0,13.0,45,0.00,,,0.00,meteohub,2013-04-04 16:27:00,
2013-04-04 10:33:00,56.3,34.7,30.24,ESE,112,9.0,13.0,44,0.00,,,0.00,meteohub,2013-04-04 16:33:00,
2013-04-04 10:38:00,56.7,34.5,30.24,ESE,112,6.0,13.0,43,0.00,,,0.00,meteohub,2013-04-04 16:38:00,
2013-04-04 10:44:00,57.0,34.2,30.24,SSE,158,8.0,13.0,42,0.00,,,0.00,meteohub,2013-04-04 16:44:00,
2013-04-04 10:49:00,57.4,34.0,30.24,SSE,158,9.0,13.0,41,0.00,,,0.00,meteohub,2013-04-04 16:49:00,
2013-04-04 10:55:00,57.9,33.1,30.24,ESE,112,7.0,13.0,39,0.00,,,0.00,meteohub,2013-04-04 16:55:00,
2013-04-04 11:00:00,58.3,32.9,30.24,SSE,158,11.0,13.0,38,0.00,,,0.00,meteohub,2013-04-04 17:00:00,
2013-04-04 11:06:00,58.6,33.1,30.21,ENE,68,6.0,11.0,38,0.00,,,0.00,meteohub,2013-04-04 17:06:00,
2013-04-04 11:11:00,59.0,32.7,30.21,SSE,158,13.0,16.0,37,0.00,,,0.00,meteohub,2013-04-04 17:11:00,
2013-04-04 11:17:00,59.2,32.9,30.21,SSE,158,10.0,16.0,37,0.00,,,0.00,meteohub,2013-04-04 17:17:00,
2013-04-04 11:22:00,59.7,33.4,30.24,SSE,158,11.0,16.0,37,0.00,,,0.00,meteohub,2013-04-04 17:22:00,
2013-04-04 11:27:00,60.3,33.3,30.24,SSE,158,8.0,15.0,36,0.00,,,0.00,meteohub,2013-04-04 17:27:00,
2013-04-04 11:33:00,60.8,33.8,30.21,ESE,112,9.0,15.0,36,0.00,,,0.00,meteohub,2013-04-04 17:33:00,
2013-04-04 11:38:00,61.2,33.3,30.21,South,180,13.0,15.0,35,0.00,,,0.00,meteohub,2013-04-04 17:38:00,
2013-04-04 11:43:00,61.5,33.6,30.21,South,180,6.0,13.0,35,0.00,,,0.00,meteohub,2013-04-04 17:43:00,
2013-04-04 11:49:00,61.7,33.8,30.21,SSE,158,5.0,13.0,35,0.00,,,0.00,meteohub,2013-04-04 17:49:00,
2013-04-04 11:54:00,62.1,33.4,30.21,ESE,112,8.0,13.0,34,0.00,,,0.00,meteohub,2013-04-04 17:54:00,
2013-04-04 11:59:00,62.6,33.8,30.21,South,180,11.0,13.0,34,0.00,,,0.00,meteohub,2013-04-04 17:59:00,
2013-04-04 12:04:00,62.8,33.3,30.21,SSE,158,5.0,13.0,33,0.00,,,0.00,meteohub,2013-04-04 18:04:00,
2013-04-04 12:09:00,63.3,33.1,30.21,SSE,158,14.0,14.0,32,0.00,,,0.00,meteohub,2013-04-04 18:09:00,
2013-04-04 12:15:00,63.9,34.2,30.21,SSE,158,8.0,11.0,33,0.00,,,0.00,meteohub,2013-04-04 18:15:00,
2013-04-04 12:20:00,64.2,33.1,30.21,SSE,158,7.0,14.0,31,0.00,,,0.00,meteohub,2013-04-04 18:20:00,
2013-04-04 12:25:00,64.4,31.5,30.21,SSE,158,5.0,11.0,29,0.00,,,0.00,meteohub,2013-04-04 18:25:00,
2013-04-04 12:30:00,64.8,31.8,30.21,SSE,158,6.0,13.0,29,0.00,,,0.00,meteohub,2013-04-04 18:30:00,
2013-04-04 12:36:00,65.7,32.5,30.21,East,90,8.0,13.0,29,0.00,,,0.00,meteohub,2013-04-04 18:36:00,
2013-04-04 12:41:00,65.3,30.6,30.21,ENE,68,7.0,13.0,27,0.00,,,0.00,meteohub,2013-04-04 18:41:00,
2013-04-04 12:47:00,65.1,30.4,30.18,SSE,158,9.0,18.0,27,0.00,,,0.00,meteohub,2013-04-04 18:47:00,
2013-04-04 12:52:00,64.8,30.0,30.18,SSE,158,5.0,18.0,27,0.00,,,0.00,meteohub,2013-04-04 18:52:00,
2013-04-04 12:57:00,65.7,30.7,30.18,SSW,202,7.0,18.0,27,0.00,,,0.00,meteohub,2013-04-04 18:57:00,
2013-04-04 13:03:00,66.4,30.6,30.18,SSE,158,6.0,12.0,26,0.00,,,0.00,meteohub,2013-04-04 19:03:00,
2013-04-04 13:08:00,66.4,30.6,30.18,South,180,10.0,13.0,26,0.00,,,0.00,meteohub,2013-04-04 19:08:00,
2013-04-04 13:14:00,66.9,30.0,30.18,SSE,158,10.0,13.0,25,0.00,,,0.00,meteohub,2013-04-04 19:14:00,
2013-04-04 13:19:00,66.9,30.0,30.18,SSE,158,13.0,13.0,25,0.00,,,0.00,meteohub,2013-04-04 19:19:00,
2013-04-04 13:24:00,67.1,30.2,30.18,WSW,248,1.0,10.0,25,0.00,,,0.00,meteohub,2013-04-04 19:24:00,
2013-04-04 13:29:00,67.5,29.5,30.18,ESE,112,2.0,13.0,24,0.00,,,0.00,meteohub,2013-04-04 19:29:00,
2013-04-04 13:35:00,67.6,29.7,30.18,WSW,248,3.0,13.0,24,0.00,,,0.00,meteohub,2013-04-04 19:35:00,
2013-04-04 13:40:00,67.8,29.8,30.18,South,180,7.0,11.0,24,0.00,,,0.00,meteohub,2013-04-04 19:40:00,
2013-04-04 13:45:00,68.4,30.2,30.18,SSE,158,6.0,11.0,24,0.00,,,0.00,meteohub,2013-04-04 19:45:00,
2013-04-04 13:51:00,68.5,29.3,30.18,ESE,112,3.0,13.0,23,0.00,,,0.00,meteohub,2013-04-04 19:51:00,
2013-04-04 13:57:00,68.7,29.5,30.18,SSE,158,2.0,13.0,23,0.00,,,0.00,meteohub,2013-04-04 19:57:00,
2013-04-04 14:02:00,69.1,29.8,30.18,SSE,158,14.0,14.0,23,0.00,,,0.00,meteohub,2013-04-04 20:02:00,
2013-04-04 14:07:00,69.1,29.8,30.18,SE,135,11.0,15.0,23,0.00,,,0.00,meteohub,2013-04-04 20:07:00,
2013-04-04 14:13:00,69.1,29.8,30.18,SSE,158,6.0,15.0,23,0.00,,,0.00,meteohub,2013-04-04 20:13:00,
2013-04-04 14:18:00,69.3,29.8,30.18,ESE,112,3.0,15.0,23,0.00,,,0.00,meteohub,2013-04-04 20:18:00,
2013-04-04 14:23:00,69.4,30.0,30.18,NE,45,5.0,11.0,23,0.00,,,0.00,meteohub,2013-04-04 20:23:00,
2013-04-04 14:28:00,69.6,30.2,30.18,SSE,158,15.0,15.0,23,0.00,,,0.00,meteohub,2013-04-04 20:28:00,
2013-04-04 14:34:00,69.8,30.4,30.15,ESE,112,6.0,18.0,23,0.00,,,0.00,meteohub,2013-04-04 20:34:00,
2013-04-04 14:40:00,70.0,30.6,30.15,SSE,158,9.0,18.0,23,0.00,,,0.00,meteohub,2013-04-04 20:40:00,
2013-04-04 14:45:00,70.0,29.5,30.15,ENE,68,7.0,10.0,22,0.00,,,0.00,meteohub,2013-04-04 20:45:00,
2013-04-04 14:50:00,69.8,29.3,30.15,SSE,158,10.0,10.0,22,0.00,,,0.00,meteohub,2013-04-04 20:50:00,
2013-04-04 14:55:00,70.0,29.5,30.15,SSE,158,7.0,11.0,22,0.00,,,0.00,meteohub,2013-04-04 20:55:00,
2013-04-04 15:01:00,70.0,29.5,30.15,SSE,158,11.0,11.0,22,0.00,,,0.00,meteohub,2013-04-04 21:01:00,
2013-04-04 15:06:00,70.2,29.7,30.15,SSE,158,7.0,12.0,22,0.00,,,0.00,meteohub,2013-04-04 21:06:00,
2013-04-04 15:11:00,70.0,29.5,30.15,SSE,158,13.0,13.0,22,0.00,,,0.00,meteohub,2013-04-04 21:11:00,
2013-04-04 15:17:00,70.2,29.7,30.15,SE,135,13.0,13.0,22,0.00,,,0.00,meteohub,2013-04-04 21:17:00,
2013-04-04 15:22:00,69.8,29.3,30.15,SE,135,9.0,13.0,22,0.00,,,0.00,meteohub,2013-04-04 21:22:00,
2013-04-04 15:27:00,70.2,29.7,30.15,SSE,158,13.0,13.0,22,0.00,,,0.00,meteohub,2013-04-04 21:27:00,
2013-04-04 15:32:00,69.6,29.1,30.12,SSE,158,11.0,13.0,22,0.00,,,0.00,meteohub,2013-04-04 21:32:00,
2013-04-04 15:37:00,69.4,28.9,30.12,SSE,158,4.0,15.0,22,0.00,,,0.00,meteohub,2013-04-04 21:37:00,
2013-04-04 15:43:00,68.9,28.6,30.12,SSE,158,1.0,15.0,22,0.00,,,0.00,meteohub,2013-04-04 21:43:00,
2013-04-04 15:49:00,68.4,28.0,30.12,SSE,158,3.0,15.0,22,0.00,,,0.00,meteohub,2013-04-04 21:49:00,
2013-04-04 15:54:00,68.5,28.2,30.12,South,180,6.0,11.0,22,0.00,,,0.00,meteohub,2013-04-04 21:54:00,
2013-04-04 15:59:00,69.1,28.8,30.12,SSE,158,2.0,11.0,22,0.00,,,0.00,meteohub,2013-04-04 21:59:00,
2013-04-04 16:04:00,69.4,28.9,30.12,ENE,68,9.0,11.0,22,0.00,,,0.00,meteohub,2013-04-04 22:04:00,
2013-04-04 16:10:00,69.6,29.1,30.12,SSE,158,4.0,12.0,22,0.00,,,0.00,meteohub,2013-04-04 22:10:00,
2013-04-04 16:15:00,70.0,29.5,30.12,SSE,158,6.0,12.0,22,0.00,,,0.00,meteohub,2013-04-04 22:15:00,
2013-04-04 16:20:00,70.2,29.7,30.12,SSE,158,6.0,13.0,22,0.00,,,0.00,meteohub,2013-04-04 22:20:00,
2013-04-04 16:25:00,70.2,29.7,30.12,ENE,68,4.0,13.0,22,0.00,,,0.00,meteohub,2013-04-04 22:25:00,
2013-04-04 16:30:00,70.2,29.7,30.12,SE,135,6.0,13.0,22,0.00,,,0.00,meteohub,2013-04-04 22:30:00,
2013-04-04 16:36:00,70.0,29.5,30.12,SSE,158,4.0,13.0,22,0.00,,,0.00,meteohub,2013-04-04 22:36:00,
2013-04-04 16:42:00,69.6,29.1,30.12,SE,135,8.0,10.0,22,0.00,,,0.00,meteohub,2013-04-04 22:42:00,
2013-04-04 16:47:00,69.6,29.1,30.12,SE,135,4.0,12.0,22,0.00,,,0.00,meteohub,2013-04-04 22:47:00,
2013-04-04 16:52:00,69.6,29.1,30.12,SSE,158,4.0,12.0,22,0.00,,,0.00,meteohub,2013-04-04 22:52:00,
2013-04-04 16:57:00,69.6,29.1,30.12,SSE,158,11.0,12.0,22,0.00,,,0.00,meteohub,2013-04-04 22:57:00,
2013-04-04 17:02:00,69.8,29.3,30.12,SSE,158,13.0,13.0,22,0.00,,,0.00,meteohub,2013-04-04 23:02:00,
2013-04-04 17:07:00,69.8,29.3,30.12,SE,135,7.0,13.0,22,0.00,,,0.00,meteohub,2013-04-04 23:07:00,
2013-04-04 17:12:00,69.6,26.8,30.12,ENE,68,4.0,13.0,20,0.00,,,0.00,meteohub,2013-04-04 23:12:00,
2013-04-04 17:17:00,69.4,28.9,30.12,SSE,158,9.0,14.0,22,0.00,,,0.00,meteohub,2013-04-04 23:17:00,
2013-04-04 17:22:00,69.4,26.6,30.09,SSE,158,6.0,14.0,20,0.00,,,0.00,meteohub,2013-04-04 23:22:00,
2013-04-04 17:27:00,69.3,28.8,30.09,ESE,112,6.0,14.0,22,0.00,,,0.00,meteohub,2013-04-04 23:27:00,
2013-04-04 17:32:00,69.1,28.8,30.12,SSE,158,10.0,10.0,22,0.00,,,0.00,meteohub,2013-04-04 23:32:00,
2013-04-04 17:37:00,68.9,26.2,30.12,ENE,68,3.0,10.0,20,0.00,,,0.00,meteohub,2013-04-04 23:37:00,
2013-04-04 17:42:00,68.7,26.1,30.12,SE,135,6.0,12.0,20,0.00,,,0.00,meteohub,2013-04-04 23:42:00,
2013-04-04 17:47:00,68.7,28.4,30.12,SSE,158,7.0,12.0,22,0.00,,,0.00,meteohub,2013-04-04 23:47:00,
2013-04-04 17:53:00,68.5,25.9,30.12,East,90,6.0,12.0,20,0.00,,,0.00,meteohub,2013-04-04 23:53:00,
2013-04-04 17:58:00,68.4,25.9,30.12,SSE,158,6.0,12.0,20,0.00,,,0.00,meteohub,2013-04-04 23:58:00,
2013-04-04 18:03:00,67.8,25.3,30.12,SSE,158,5.0,11.0,20,0.00,,,0.00,meteohub,2013-04-05 00:03:00,
2013-04-04 18:08:00,67.5,25.0,30.12,SSE,158,9.0,11.0,20,0.00,,,0.00,meteohub,2013-04-05 00:08:00,
2013-04-04 18:13:00,67.3,25.0,30.12,SE,135,4.0,11.0,20,0.00,,,0.00,meteohub,2013-04-05 00:13:00,
2013-04-04 18:19:00,67.1,27.0,30.12,SE,135,6.0,12.0,22,0.00,,,0.00,meteohub,2013-04-05 00:19:00,
2013-04-04 18:24:00,67.1,27.0,30.12,SE,135,9.0,12.0,22,0.00,,,0.00,meteohub,2013-04-05 00:24:00,
2013-04-04 18:29:00,66.9,27.0,30.12,East,90,8.0,11.0,22,0.00,,,0.00,meteohub,2013-04-05 00:29:00,
2013-04-04 18:34:00,66.6,26.6,30.12,SSE,158,8.0,11.0,22,0.00,,,0.00,meteohub,2013-04-05 00:34:00,
2013-04-04 18:40:00,66.0,27.1,30.12,ESE,112,4.0,11.0,23,0.00,,,0.00,meteohub,2013-04-05 00:40:00,
2013-04-04 18:45:00,65.5,26.8,30.12,SSE,158,6.0,10.0,23,0.00,,,0.00,meteohub,2013-04-05 00:45:00,
2013-04-04 18:50:00,64.9,26.2,30.12,SE,135,5.0,10.0,23,0.00,,,0.00,meteohub,2013-04-05 00:50:00,
2013-04-04 18:55:00,64.6,26.1,30.12,SSE,158,4.0,10.0,23,0.00,,,0.00,meteohub,2013-04-05 00:55:00,
2013-04-04 19:01:00,63.9,25.3,30.12,ESE,112,3.0,10.0,23,0.00,,,0.00,meteohub,2013-04-05 01:01:00,
2013-04-04 19:06:00,63.0,24.6,30.12,SSE,158,2.0,9.0,23,0.00,,,0.00,meteohub,2013-04-05 01:06:00,
2013-04-04 19:11:00,62.2,25.0,30.12,SSE,158,3.0,6.0,24,0.00,,,0.00,meteohub,2013-04-05 01:11:00,
2013-04-04 19:16:00,61.9,24.8,30.12,SSE,158,4.0,4.0,24,0.00,,,0.00,meteohub,2013-04-05 01:16:00,
2013-04-04 19:21:00,61.3,24.3,30.12,SSE,158,4.0,5.0,24,0.00,,,0.00,meteohub,2013-04-05 01:21:00,
2013-04-04 19:27:00,60.6,23.7,30.12,ESE,112,3.0,5.0,24,0.00,,,0.00,meteohub,2013-04-05 01:27:00,
2013-04-04 19:32:00,60.3,23.4,30.09,ESE,112,4.0,5.0,24,0.00,,,0.00,meteohub,2013-04-05 01:32:00,
2013-04-04 19:37:00,59.9,23.0,30.09,SSE,158,3.0,4.0,24,0.00,,,0.00,meteohub,2013-04-05 01:37:00,
2013-04-04 19:43:00,59.4,22.6,30.09,SSE,158,4.0,4.0,24,0.00,,,0.00,meteohub,2013-04-05 01:43:00,
2013-04-04 19:48:00,59.0,22.3,30.12,SSE,158,2.0,4.0,24,0.00,,,0.00,meteohub,2013-04-05 01:48:00,
2013-04-04 19:53:00,58.8,23.2,30.12,SSE,158,1.0,4.0,25,0.00,,,0.00,meteohub,2013-04-05 01:53:00,
2013-04-04 19:58:00,58.5,22.8,30.12,SSE,158,1.0,4.0,25,0.00,,,0.00,meteohub,2013-04-05 01:58:00,
2013-04-04 20:03:00,58.3,22.6,30.12,SSE,158,0.0,3.0,25,0.00,,,0.00,meteohub,2013-04-05 02:03:00,
2013-04-04 20:09:00,58.1,22.5,30.12,SSW,202,1.0,2.0,25,0.00,,,0.00,meteohub,2013-04-05 02:09:00,
2013-04-04 20:14:00,57.7,22.3,30.12,SSW,202,0.0,2.0,25,0.00,,,0.00,meteohub,2013-04-05 02:14:00,
2013-04-04 20:20:00,57.6,23.0,30.09,WSW,248,0.0,2.0,26,0.00,,,0.00,meteohub,2013-04-05 02:20:00,
2013-04-04 20:25:00,57.2,22.6,30.09,NW,315,0.0,1.0,26,0.00,,,0.00,meteohub,2013-04-05 02:25:00,
2013-04-04 20:30:00,56.8,22.5,30.09,North,0,1.0,1.0,26,0.00,,,0.00,meteohub,2013-04-05 02:30:00,
2013-04-04 20:35:00,56.7,23.2,30.12,NNW,338,1.0,2.0,27,0.00,,,0.00,meteohub,2013-04-05 02:35:00,
2013-04-04 20:41:00,56.3,22.8,30.12,NNE,22,0.0,2.0,27,0.00,,,0.00,meteohub,2013-04-05 02:41:00,
2013-04-04 20:46:00,55.9,22.5,30.12,NNE,22,1.0,2.0,27,0.00,,,0.00,meteohub,2013-04-05 02:46:00,
2013-04-04 20:52:00,55.0,23.4,30.12,SW,225,0.0,3.0,29,0.00,,,0.00,meteohub,2013-04-05 02:52:00,
2013-04-04 20:57:00,54.9,24.1,30.12,SSW,202,0.0,3.0,30,0.00,,,0.00,meteohub,2013-04-05 02:57:00,
2013-04-04 21:02:00,54.7,24.6,30.12,WSW,248,0.0,3.0,31,0.00,,,0.00,meteohub,2013-04-05 03:02:00,
2013-04-04 21:07:00,54.5,24.6,30.12,NNE,22,2.0,2.0,31,0.00,,,0.00,meteohub,2013-04-05 03:07:00,
2013-04-04 21:12:00,54.3,25.2,30.12,NNE,22,3.0,3.0,32,0.00,,,0.00,meteohub,2013-04-05 03:12:00,
2013-04-04 21:17:00,54.1,25.7,30.12,NNE,22,2.0,3.0,33,0.00,,,0.00,meteohub,2013-04-05 03:17:00,
2013-04-04 21:22:00,54.0,25.5,30.12,NNE,22,0.0,3.0,33,0.00,,,0.00,meteohub,2013-04-05 03:22:00,
2013-04-04 21:27:00,53.8,25.3,30.12,NNW,338,3.0,3.0,33,0.00,,,0.00,meteohub,2013-04-05 03:27:00,
2013-04-04 21:32:00,53.6,25.2,30.12,North,0,1.0,3.0,33,0.00,,,0.00,meteohub,2013-04-05 03:32:00,
2013-04-04 21:37:00,53.4,25.9,30.12,WNW,292,2.0,3.0,34,0.00,,,0.00,meteohub,2013-04-05 03:37:00,
2013-04-04 21:42:00,53.2,25.7,30.12,NNE,22,0.0,3.0,34,0.00,,,0.00,meteohub,2013-04-05 03:42:00,
2013-04-04 21:47:00,53.1,26.2,30.12,WNW,292,0.0,3.0,35,0.00,,,0.00,meteohub,2013-04-05 03:47:00,
2013-04-04 21:52:00,52.9,26.8,30.12,NNE,22,2.0,3.0,36,0.00,,,0.00,meteohub,2013-04-05 03:52:00,
2013-04-04 21:57:00,52.5,26.4,30.12,SSE,158,1.0,2.0,36,0.00,,,0.00,meteohub,2013-04-05 03:57:00,
2013-04-04 22:00:00,52.3,26.2,30.12,SSE,158,1.0,2.0,36,0.00,,,0.00,meteohub,2013-04-05 04:00:00,
2013-04-04 22:01:00,52.3,26.2,30.12,SSE,158,0.0,2.0,36,0.00,,,0.00,meteohub,2013-04-05 04:01:00,
2013-04-04 22:02:00,52.3,26.2,30.12,SSE,158,0.0,2.0,36,0.00,,,0.00,meteohub,2013-04-05 04:02:00,
2013-04-04 22:07:00,52.0,25.9,30.12,SE,135,0.0,2.0,36,0.00,,,0.00,meteohub,2013-04-05 04:07:00,
2013-04-04 22:13:00,52.0,25.9,30.12,SSW,202,2.0,2.0,36,0.00,,,0.00,meteohub,2013-04-05 04:13:00,
2013-04-04 22:19:00,51.8,26.4,30.12,NNE,22,2.0,2.0,37,0.00,,,0.00,meteohub,2013-04-05 04:19:00,
2013-04-04 22:24:00,51.6,26.2,30.12,ENE,68,1.0,2.0,37,0.00,,,0.00,meteohub,2013-04-05 04:24:00,
2013-04-04 22:29:00,51.6,26.2,30.12,NE,45,0.0,2.0,37,0.00,,,0.00,meteohub,2013-04-05 04:29:00,
2013-04-04 22:34:00,51.3,25.9,30.12,NE,45,0.0,2.0,37,0.00,,,0.00,meteohub,2013-04-05 04:34:00,
2013-04-04 22:39:00,51.1,26.4,30.12,WNW,292,1.0,1.0,38,0.00,,,0.00,meteohub,2013-04-05 04:39:00,
2013-04-04 22:45:00,50.9,26.2,30.12,SSW,202,1.0,2.0,38,0.00,,,0.00,meteohub,2013-04-05 04:45:00,
2013-04-04 22:50:00,50.9,26.2,30.12,SSW,202,0.0,3.0,38,0.00,,,0.00,meteohub,2013-04-05 04:50:00,
2013-04-04 22:55:00,50.7,26.1,30.12,SSW,202,0.0,3.0,38,0.00,,,0.00,meteohub,2013-04-05 04:55:00,
2013-04-04 23:01:00,50.7,26.1,30.12,SSW,202,2.0,2.0,38,0.00,,,0.00,meteohub,2013-04-05 05:01:00,
2013-04-04 23:06:00,50.5,25.9,30.09,SSW,202,1.0,2.0,38,0.00,,,0.00,meteohub,2013-04-05 05:06:00,
2013-04-04 23:11:00,50.5,25.9,30.09,NNW,338,2.0,2.0,38,0.00,,,0.00,meteohub,2013-04-05 05:11:00,
2013-04-04 23:17:00,50.4,25.7,30.09,WNW,292,1.0,2.0,38,0.00,,,0.00,meteohub,2013-04-05 05:17:00,
2013-04-04 23:22:00,50.2,26.2,30.12,NNW,338,2.0,2.0,39,0.00,,,0.00,meteohub,2013-04-05 05:22:00,
2013-04-04 23:27:00,50.2,26.2,30.12,NNW,338,2.0,3.0,39,0.00,,,0.00,meteohub,2013-04-05 05:27:00,
2013-04-04 23:32:00,49.8,26.6,30.12,North,0,2.0,4.0,40,0.00,,,0.00,meteohub,2013-04-05 05:32:00,
2013-04-04 23:37:00,49.8,26.6,30.12,NNW,338,3.0,4.0,40,0.00,,,0.00,meteohub,2013-04-05 05:37:00,
2013-04-04 23:42:00,49.6,26.4,30.12,NNW,338,3.0,3.0,40,0.00,,,0.00,meteohub,2013-04-05 05:42:00,
2013-04-04 23:47:00,49.5,26.2,30.09,NNW,338,5.0,5.0,40,0.00,,,0.00,meteohub,2013-04-05 05:47:00,
2013-04-04 23:52:00,49.3,26.1,30.09,North,0,5.0,8.0,40,0.00,,,0.00,meteohub,2013-04-05 05:52:00,
2013-04-04 23:57:00,49.8,25.9,30.09,NNE,22,5.0,10.0,39,0.00,,,0.00,meteohub,2013-04-05 05:57:00,